• In Russia
  • List of Countries
  • For 7 days
  • Water Temperature
  • Satellite Maps
  • Weather Map
  • Weather Widgets
  • user-avatar
    Login

    Hourly Weather Yulara

    Today, 10 December, Saturday

    Time Temperature Precipitation Wind Pressure Humidity
    00:00 +24°C° 0 mm 6 mps 719 mmHg 24%
    01:00 +24°C° 0 mm 6 mps 718 mmHg 25%
    02:00 +23°C° 0 mm 6 mps 718 mmHg 27%
    03:00 +22°C° 0 mm 5 mps 718 mmHg 29%
    04:00 +22°C° 0 mm 5 mps 719 mmHg 29%
    05:00 +21°C° 0 mm 4 mps 719 mmHg 30%
    06:00 +21°C° 0 mm 4 mps 719 mmHg 31%
    07:00 +23°C° 0 mm 5 mps 720 mmHg 27%
    08:00 +24°C° 0 mm 6 mps 720 mmHg 23%
    09:00 +27°C° 0 mm 6 mps 721 mmHg 19%
    10:00 +28°C° 0 mm 5 mps 721 mmHg 17%
    11:00 +29°C° 0 mm 5 mps 720 mmHg 15%
    12:00 +30°C° 0 mm 5 mps 720 mmHg 13%
    13:00 +32°C° 0 mm 5 mps 720 mmHg 12%
    14:00 +33°C° 0 mm 5 mps 719 mmHg 11%
    15:00 +34°C° 0 mm 5 mps 719 mmHg 10%
    16:00 +34°C° 0 mm 5 mps 719 mmHg 10%
    17:00 +33°C° 0 mm 5 mps 718 mmHg 10%
    18:00 +33°C° 0 mm 5 mps 718 mmHg 10%
    19:00 +32°C° 0 mm 5 mps 719 mmHg 12%
    20:00 +30°C° 0 mm 5 mps 719 mmHg 13%
    21:00 +29°C° 0 mm 5 mps 719 mmHg 15%
    22:00 +28°C° 0 mm 5 mps 719 mmHg 16%
    23:00 +27°C° 0 mm 5 mps 719 mmHg 17%

    Tomorrow, 11 December, Sunday

    Time Temperature Precipitation Wind Pressure Humidity
    00:00 +26°C° 0 mm 5 mps 719 mmHg 18%
    01:00 +25°C° 0 mm 5 mps 719 mmHg 19%
    02:00 +25°C° 0 mm 5 mps 719 mmHg 20%
    03:00 +23°C° 0 mm 5 mps 718 mmHg 21%
    04:00 +23°C° 0 mm 5 mps 719 mmHg 22%
    05:00 +22°C° 0 mm 4 mps 719 mmHg 23%
    06:00 +22°C° 0 mm 4 mps 719 mmHg 24%
    07:00 +25°C° 0 mm 5 mps 719 mmHg 21%
    08:00 +27°C° 0 mm 6 mps 719 mmHg 18%
    09:00 +29°C° 0 mm 7 mps 720 mmHg 15%
    10:00 +30°C° 0 mm 7 mps 719 mmHg 14%
    11:00 +32°C° 0 mm 7 mps 719 mmHg 12%
    12:00 +33°C° 0 mm 6 mps 719 mmHg 10%
    13:00 +34°C° 0 mm 6 mps 718 mmHg 10%
    14:00 +34°C° 0 mm 6 mps 718 mmHg 9%
    15:00 +35°C° 0 mm 5 mps 718 mmHg 8%
    16:00 +35°C° 0 mm 5 mps 717 mmHg 8%
    17:00 +34°C° 0 mm 5 mps 717 mmHg 9%
    18:00 +34°C° 0 mm 5 mps 717 mmHg 9%
    19:00 +33°C° 0 mm 5 mps 717 mmHg 10%
    20:00 +30°C° 0 mm 4 mps 717 mmHg 12%
    21:00 +29°C° 0 mm 4 mps 718 mmHg 13%
    22:00 +28°C° 0 mm 4 mps 718 mmHg 14%
    23:00 +27°C° 0 mm 4 mps 718 mmHg 15%

    Day after tomorrow, 12 December, Monday

    Time Temperature Precipitation Wind Pressure Humidity
    00:00 +27°C° 0 mm 5 mps 718 mmHg 16%
    01:00 +26°C° 0 mm 4 mps 717 mmHg 17%
    02:00 +25°C° 0 mm 4 mps 717 mmHg 18%
    03:00 +25°C° 0 mm 4 mps 717 mmHg 19%
    04:00 +23°C° 0 mm 4 mps 717 mmHg 19%
    05:00 +23°C° 0 mm 4 mps 717 mmHg 20%
    06:00 +23°C° 0 mm 4 mps 717 mmHg 20%
    07:00 +26°C° 0 mm 5 mps 717 mmHg 17%
    08:00 +28°C° 0 mm 6 mps 718 mmHg 14%
    09:00 +32°C° 0 mm 7 mps 718 mmHg 12%
    10:00 +33°C° 0 mm 6 mps 718 mmHg 10%
    11:00 +34°C° 0 mm 5 mps 717 mmHg 9%
    12:00 +35°C° 0 mm 5 mps 717 mmHg 8%
    13:00 +36°C° 0 mm 4 mps 716 mmHg 7%
    14:00 +36°C° 0 mm 3 mps 716 mmHg 7%
    15:00 +37°C° 0 mm 3 mps 715 mmHg 6%
    16:00 +37°C° 0 mm 2 mps 715 mmHg 6%
    17:00 +36°C° 0 mm 1 mps 715 mmHg 6%
    18:00 +36°C° 0 mm 1 mps 715 mmHg 6%
    19:00 +34°C° 0 mm 1 mps 715 mmHg 8%
    20:00 +33°C° 0 mm 1 mps 716 mmHg 9%
    21:00 +31°C° 0 mm 1 mps 716 mmHg 11%
    22:00 +30°C° 0 mm 1 mps 716 mmHg 11%
    23:00 +30°C° 0 mm 1 mps 716 mmHg 12%

    13 December, Tuesday

    Time Temperature Precipitation Wind Pressure Humidity
    00:00 +29°C° 0 mm 1 mps 716 mmHg 12%
    01:00 +28°C° 0 mm 1 mps 715 mmHg 12%
    02:00 +28°C° 0 mm 2 mps 714 mmHg 12%
    03:00 +27°C° 0 mm 2 mps 714 mmHg 12%
    04:00 +27°C° 0 mm 2 mps 714 mmHg 13%
    05:00 +27°C° 0 mm 2 mps 714 mmHg 14%
    06:00 +27°C° 0 mm 3 mps 714 mmHg 15%
    07:00 +29°C° 0 mm 3 mps 715 mmHg 14%
    08:00 +33°C° 0 mm 3 mps 715 mmHg 13%
    09:00 +35°C° 0 mm 3 mps 715 mmHg 12%
    10:00 +36°C° 0 mm 4 mps 715 mmHg 11%
    11:00 +38°C° 0 mm 4 mps 715 mmHg 9%
    12:00 +40°C° 0 mm 5 mps 715 mmHg 8%
    13:00 +41°C° 0 mm 5 mps 714 mmHg 7%
    14:00 +41°C° 0 mm 4 mps 713 mmHg 7%
    15:00 +41°C° 0 mm 4 mps 713 mmHg 7%
    16:00 +41°C° 0 mm 4 mps 713 mmHg 7%
    17:00 +41°C° 0 mm 4 mps 712 mmHg 6%
    18:00 +41°C° 0 mm 4 mps 712 mmHg 6%
    19:00 +38°C° 0 mm 3 mps 713 mmHg 7%
    20:00 +36°C° 0 mm 3 mps 713 mmHg 8%
    21:00 +35°C° 0 mm 3 mps 714 mmHg 9%
    22:00 +33°C° 0 mm 6 mps 714 mmHg 22%
    23:00 +29°C° 0 mm 9 mps 714 mmHg 36%

    14 December, Wednesday

    Time Temperature Precipitation Wind Pressure Humidity
    00:00 +27°C° 0 mm 13 mps 714 mmHg 49%
    01:00 +27°C° 0 mm 12 mps 714 mmHg 50%
    02:00 +26°C° 0 mm 11 mps 714 mmHg 51%
    03:00 +26°C° 0 mm 10 mps 713 mmHg 51%
    04:00 +24°C° 0 mm 10 mps 714 mmHg 52%
    05:00 +24°C° 0 mm 9 mps 714 mmHg 53%
    06:00 +23°C° 0 mm 9 mps 715 mmHg 53%
    07:00 +24°C° 0 mm 9 mps 715 mmHg 50%
    08:00 +26°C° 0 mm 9 mps 716 mmHg 47%
    09:00 +26°C° 0 mm 10 mps 716 mmHg 44%
    10:00 +28°C° 0 mm 9 mps 716 mmHg 41%
    11:00 +31°C° 0 mm 9 mps 716 mmHg 37%
    12:00 +32°C° 0 mm 8 mps 716 mmHg 33%
    13:00 +33°C° 0 mm 7 mps 715 mmHg 31%
    14:00 +34°C° 0 mm 7 mps 715 mmHg 29%
    15:00 +35°C° 0 mm 6 mps 714 mmHg 27%
    16:00 +35°C° 0 mm 6 mps 714 mmHg 27%
    17:00 +34°C° 0 mm 7 mps 714 mmHg 28%
    18:00 +34°C° 0 mm 8 mps 714 mmHg 28%
    19:00 +32°C° 0 mm 9 mps 715 mmHg 33%
    20:00 +31°C° 0 mm 10 mps 715 mmHg 37%
    21:00 +28°C° 0 mm 11 mps 716 mmHg 41%
    22:00 +27°C° 0 mm 10 mps 716 mmHg 43%
    23:00 +26°C° 0 mm 10 mps 716 mmHg 44%

    15 December, Thursday

    Time Temperature Precipitation Wind Pressure Humidity
    00:00 +26°C° 0 mm 9 mps 716 mmHg 45%
    01:00 +24°C° 0 mm 9 mps 716 mmHg 46%
    02:00 +24°C° 0 mm 8 mps 716 mmHg 47%
    03:00 +23°C° 0 mm 8 mps 716 mmHg 48%
    04:00 +23°C° 0 mm 8 mps 716 mmHg 49%
    05:00 +22°C° 0 mm 7 mps 716 mmHg 50%
    06:00 +22°C° 0 mm 7 mps 716 mmHg 51%
    07:00 +23°C° 0 mm 7 mps 717 mmHg 47%
    08:00 +26°C° 0 mm 7 mps 717 mmHg 43%
    09:00 +27°C° 0 mm 8 mps 717 mmHg 40%
    10:00 +29°C° 0 mm 7 mps 717 mmHg 37%
    11:00 +30°C° 0 mm 7 mps 717 mmHg 35%
    12:00 +33°C° 0 mm 6 mps 716 mmHg 33%
    13:00 +33°C° 0 mm 5 mps 716 mmHg 31%
    14:00 +34°C° 0 mm 5 mps 715 mmHg 30%
    15:00 +35°C° 0 mm 4 mps 715 mmHg 28%
    16:00 +35°C° 0 mm 4 mps 715 mmHg 28%
    17:00 +35°C° 0 mm 5 mps 715 mmHg 29%
    18:00 +34°C° 0 mm 5 mps 715 mmHg 29%
    19:00 +34°C° 0 mm 5 mps 715 mmHg 31%
    20:00 +33°C° 0 mm 6 mps 715 mmHg 32%
    21:00 +33°C° 0 mm 6 mps 716 mmHg 34%
    22:00 +32°C° 0 mm 6 mps 715 mmHg 35%
    23:00 +30°C° 0 mm 5 mps 715 mmHg 36%
    Show more